GFSNW_250_spd_075.txt.gz
Wind_Speed
77 77 78 80 82 85 87 86 81 85 89 86 82 81 87 93 90 88 91 97 105 106 112 115 114 108 105 99 96 93 81 71 68 53 50 52 47 38 35 32 34 33 25 24
70 71 72 74 76 79 82 80 78 81 82 73 75 79 79 80 78 79 81 88 91 100 92 94 98 102 101 99 90 85 76 69 58 52 53 52 48 42 38 36 35 33 32 29
66 66 68 69 71 73 77 76 71 71 71 71 70 71 70 75 76 75 76 79 81 80 74 80 82 90 88 86 77 71 70 59 56 46 52 54 50 48 42 43 34 35 34 33
63 64 65 66 68 72 76 68 61 63 63 62 67 65 64 67 64 61 64 70 70 73 70 70 72 79 83 80 75 71 61 58 56 53 55 56 53 52 47 40 40 32 37 36
56 57 58 60 63 67 69 56 55 58 58 57 58 55 54 59 53 56 64 66 69 66 65 67 72 80 77 76 70 65 63 65 63 61 58 55 55 50 47 42 42 39 37 38
54 55 55 57 60 64 57 48 51 49 49 47 45 45 51 51 49 50 55 59 59 53 59 68 72 75 79 70 63 65 67 74 66 59 62 59 54 47 43 45 45 44 37 38
50 51 52 54 56 58 53 49 52 44 41 42 43 49 51 48 49 46 51 50 47 54 73 70 74 75 76 66 67 70 71 79 70 64 65 64 51 50 47 46 45 45 45 39
48 50 51 53 54 55 50 49 44 41 41 44 44 49 51 46 47 42 47 45 56 68 69 74 75 75 76 70 72 75 77 83 75 67 68 56 55 54 56 53 49 49 50 46
47 48 50 52 53 54 53 50 46 44 44 36 48 50 50 51 49 47 47 53 61 69 67 74 69 78 73 72 80 82 84 84 80 71 68 55 51 58 51 57 51 49 50 49
52 53 54 56 56 56 55 52 49 48 43 50 50 50 50 54 52 53 53 57 61 68 64 68 71 76 80 83 87 83 86 87 82 75 69 70 65 60 57 51 52 55 57 53
56 57 58 60 60 60 59 55 52 50 49 52 54 54 54 56 55 53 52 54 58 67 64 69 72 77 78 77 78 80 86 90 82 78 70 67 70 69 68 54 51 56 56 54
54 56 58 60 61 61 60 56 52 55 56 54 61 57 57 57 59 56 54 51 61 67 66 69 76 79 77 73 73 77 84 86 83 79 69 70 71 73 68 63 62 60 54 56
48 51 54 56 56 56 55 51 52 58 57 59 59 58 64 62 60 57 52 53 57 65 69 70 76 74 75 74 73 77 81 83 85 83 79 76 73 72 68 65 69 68 65 61
40 43 46 48 49 52 51 49 53 56 55 55 52 60 61 61 58 52 49 53 54 64 68 70 72 69 77 77 76 77 82 81 82 82 81 82 76 73 73 72 72 68 68 68
31 35 39 42 45 47 50 52 51 49 54 50 57 59 57 54 53 51 51 53 56 62 66 69 68 69 76 77 81 78 79 75 75 77 81 81 80 77 72 69 67 67 69 69
24 28 31 35 39 42 45 49 49 50 48 54 56 55 51 51 51 48 47 51 55 60 62 66 66 71 77 84 80 79 79 77 76 77 79 75 77 77 76 74 73 75 75 74
24 27 29 33 37 37 37 38 41 40 44 49 51 49 47 50 47 43 48 52 51 54 57 62 66 77 84 86 83 82 81 80 82 81 75 72 71 72 74 75 75 75 74 74
22 24 28 31 34 37 41 44 45 45 44 43 40 42 45 42 44 46 49 48 47 50 53 60 69 76 74 76 85 84 85 87 83 79 75 74 75 73 72 73 74 74 74 72
20 23 26 30 33 35 36 38 38 38 39 42 43 42 41 42 44 45 45 43 42 43 48 60 68 69 68 72 84 87 87 87 85 81 75 73 73 71 72 72 73 74 73 71
21 21 22 24 29 31 34 35 36 37 39 39 39 39 40 40 38 38 39 40 41 44 49 57 62 65 61 67 80 91 92 89 82 78 76 73 69 69 70 70 70 70 71 71
28 27 27 26 27 29 31 32 30 31 32 33 34 34 33 32 33 34 38 38 39 40 45 52 59 60 54 57 73 85 90 91 88 85 81 73 70 68 68 68 68 69 71 71
32 34 32 31 30 31 30 30 30 31 31 32 32 30 31 33 34 33 34 37 37 42 42 49 53 59 59 60 67 79 82 84 83 83 79 72 69 67 67 68 69 70 70 72
26 28 31 33 35 34 34 34 33 31 32 33 32 31 30 29 30 31 32 34 35 37 40 41 45 43 54 60 66 71 77 78 78 79 78 76 74 73 72 71 70 71 72 73
25 23 26 27 26 27 29 30 31 31 30 26 26 25 27 26 26 25 27 28 30 32 34 34 37 39 41 53 59 63 69 73 76 79 80 80 79 77 77 76 77 77 78 78
20 20 19 20 22 22 23 24 25 26 26 26 23 22 21 21 20 21 24 27 31 34 37 38 38 38 40 48 54 59 61 66 72 75 79 82 82 80 80 81 82 83 84 84
14 13 15 17 18 18 18 19 18 19 19 19 21 23 23 22 21 20 20 22 24 27 30 35 38 43 43 46 52 56 59 63 65 69 74 77 80 82 83 84 85 85 86 88
17 17 18 18 18 20 18 18 18 18 18 17 18 20 20 19 19 18 17 19 19 22 26 30 35 38 40 42 48 54 57 60 63 65 68 71 73 76 78 80 81 82 84 86

GFSNW_250_spd_078.txt.gz
Wind_Speed
76 76 77 78 81 84 82 79 70 80 82 80 74 70 79 88 88 92 104 105 103 117 120 111 108 102 97 102 100 98 92 91 81 70 71 67 68 61 49 44 43 40 31 28
72 74 75 77 79 81 81 76 73 76 77 69 69 73 75 80 84 83 84 88 88 97 111 101 107 106 109 112 111 104 103 102 94 89 85 77 73 67 65 50 49 40 33 33
68 70 71 73 75 76 76 72 70 68 69 67 68 70 72 73 77 77 74 77 75 83 95 87 86 90 91 98 99 101 107 105 97 95 83 82 72 63 56 53 46 44 38 40
62 65 68 70 71 74 73 66 62 64 61 64 68 68 68 69 69 70 67 70 73 76 78 78 74 80 81 84 83 83 92 87 83 79 77 82 76 65 56 54 48 44 47 43
59 60 62 64 66 69 63 56 57 59 59 60 59 59 57 60 66 64 64 65 72 64 69 72 73 71 75 78 79 79 81 75 73 73 71 73 63 55 61 55 49 44 49 45
55 56 57 60 62 63 53 50 54 54 55 56 54 52 57 59 58 54 59 63 62 60 64 62 67 67 71 70 78 73 69 69 67 60 64 63 56 55 59 55 47 46 49 47
47 48 50 51 53 49 45 47 49 45 48 48 50 55 56 55 55 57 57 57 59 61 55 56 58 61 67 71 74 76 63 61 62 59 63 64 48 60 57 54 51 48 45 47
44 45 47 48 49 46 42 47 41 41 45 47 47 48 47 51 53 52 52 54 57 52 48 52 53 59 65 65 70 77 64 65 63 59 63 55 63 60 58 58 55 48 46 47
41 42 42 43 43 43 42 42 38 39 44 37 44 44 43 43 45 48 48 51 53 46 41 45 49 54 58 63 72 72 66 54 55 57 64 60 63 61 61 62 55 51 51 49
41 42 43 43 43 43 43 38 39 41 37 41 39 39 41 44 50 51 50 54 49 39 39 42 50 56 61 67 67 70 60 53 58 59 67 67 68 65 66 66 52 56 56 58
43 43 44 44 44 46 44 40 40 39 38 41 41 44 44 46 48 48 56 52 46 38 37 43 50 56 57 60 66 67 58 57 62 69 72 73 71 65 65 62 65 64 64 63
48 49 50 50 50 51 48 46 42 43 44 44 47 50 50 53 57 53 52 49 44 37 36 42 49 56 57 61 68 68 68 69 69 74 73 78 74 72 66 63 60 65 63 62
48 51 52 54 55 55 53 53 52 50 49 49 47 44 53 59 58 57 54 51 44 37 40 44 51 56 60 63 70 69 65 62 62 72 76 81 74 72 69 67 67 65 62 63
46 49 51 53 54 54 51 51 52 50 48 45 46 52 56 61 61 57 55 53 43 40 44 45 53 60 63 63 67 66 66 63 67 71 74 81 77 74 71 66 61 63 66 66
43 46 47 50 51 51 49 52 48 47 49 44 54 62 62 62 60 57 56 52 46 45 45 45 55 61 63 65 64 60 63 63 68 72 78 81 82 77 77 71 70 68 67 69
35 38 42 45 47 45 46 45 40 38 40 49 57 58 59 58 57 56 58 52 46 44 44 46 50 58 62 60 58 67 67 69 68 73 76 80 82 82 78 73 69 68 69 68
28 32 34 36 37 37 38 39 48 48 48 49 53 58 57 53 53 59 54 47 44 41 43 48 49 53 54 53 55 65 67 67 68 76 75 75 80 84 83 77 73 74 75 75
23 27 30 32 34 37 39 41 40 44 43 43 46 49 47 43 46 51 44 40 40 41 46 46 43 46 46 51 57 61 65 66 70 74 73 75 78 84 86 83 78 74 74 75
22 23 25 27 30 32 33 35 37 41 41 41 42 43 37 39 47 44 41 37 37 41 39 40 40 41 45 59 56 61 67 69 73 76 75 72 74 76 79 84 77 73 71 72
20 21 24 26 28 30 32 34 37 38 39 36 35 38 41 43 44 39 36 35 36 37 38 40 38 40 46 52 54 64 72 76 74 74 75 73 74 75 75 76 76 74 72 72
25 24 24 24 26 27 28 29 32 34 35 36 38 39 38 37 37 35 32 33 34 35 37 37 37 41 41 46 54 62 69 74 70 72 76 75 77 78 74 70 71 74 75 74
30 32 32 32 33 35 36 36 34 33 32 33 33 34 34 34 33 34 34 34 33 36 39 34 36 40 41 43 52 60 66 73 75 74 77 79 80 78 74 72 70 69 68 69
27 30 31 30 32 33 33 33 33 33 33 33 33 34 34 33 32 33 35 34 37 38 35 32 33 36 39 40 46 54 62 71 74 74 76 78 79 77 74 73 74 73 71 72
28 28 29 27 25 26 27 29 30 30 30 30 30 31 31 33 34 34 33 31 30 29 25 28 31 34 38 38 42 53 61 63 70 72 75 79 79 79 78 77 77 76 76 77
24 24 25 25 25 24 24 24 25 27 28 29 30 28 28 30 25 21 24 26 22 20 25 30 31 29 30 32 39 42 47 54 60 62 67 75 79 82 83 83 83 83 82 81
21 21 22 22 23 22 21 21 20 20 20 19 20 22 22 20 20 22 25 26 26 27 29 31 29 28 29 28 30 36 42 47 52 56 59 64 71 76 78 81 83 84 84 83
22 20 21 22 23 22 21 20 19 18 18 19 20 22 22 22 21 21 22 20 21 21 24 27 30 31 34 34 32 37 42 44 45 49 50 53 56 62 68 73 76 78 81 83

GFSNW_250_spd_081.txt.gz
Wind_Speed
66 68 69 72 74 77 76 72 67 72 77 73 72 72 75 78 78 81 82 86 91 103 108 101 98 91 90 87 85 83 82 76 70 69 69 64 62 63 63 60 56 48 50 41
64 66 68 69 71 72 72 67 67 69 74 57 57 65 72 74 75 78 78 80 83 88 89 95 104 98 99 97 95 92 89 83 79 77 76 71 74 72 69 65 59 51 47 47
60 63 65 67 67 68 67 66 66 66 63 54 55 61 62 61 68 72 73 74 81 80 84 82 81 88 94 106 101 97 98 94 90 84 84 85 79 70 66 64 59 51 58 63
56 59 61 63 63 64 62 57 56 61 56 59 60 63 64 63 68 70 70 69 78 77 76 80 76 81 81 84 92 109 106 100 96 95 92 94 91 84 77 74 71 74 58 65
51 55 56 60 60 61 53 47 51 59 58 62 62 61 60 63 68 67 68 63 71 69 66 72 75 75 75 75 75 80 91 98 107 104 99 99 99 97 93 78 70 68 65 61
47 51 54 54 54 49 44 48 55 55 56 58 53 54 63 67 65 61 62 60 64 64 67 67 68 61 68 67 74 73 79 78 82 87 97 103 108 95 92 85 77 74 64 51
43 46 50 52 50 43 49 51 54 49 50 50 54 56 59 60 58 57 54 51 57 61 58 58 60 58 62 63 68 70 72 79 70 70 80 88 75 77 76 73 67 62 55 56
41 42 45 47 46 46 48 51 47 46 50 53 54 53 56 58 55 53 55 53 57 51 48 49 51 52 53 57 62 67 72 74 71 74 74 74 73 67 66 62 52 53 53 57
40 42 43 43 40 43 46 45 47 48 49 48 50 51 54 54 51 54 55 54 53 48 47 46 46 47 51 53 62 68 70 74 73 65 65 63 61 64 66 58 48 54 57 63
38 39 40 40 39 40 43 41 43 46 44 48 49 49 50 52 52 54 54 50 46 44 41 42 44 45 49 52 60 64 67 71 68 66 57 58 59 63 62 58 46 60 62 65
36 37 38 38 38 40 39 43 43 43 45 47 46 47 47 48 47 47 50 45 44 42 38 39 43 42 46 53 59 64 67 68 72 65 50 54 59 64 61 54 62 59 65 66
36 36 36 37 38 39 40 38 39 42 44 44 44 45 47 48 48 50 47 43 39 39 35 34 39 40 44 54 59 67 70 74 75 59 52 56 59 62 62 61 65 58 65 67
38 38 39 40 39 39 37 40 43 45 43 44 43 41 46 48 48 49 45 42 41 37 37 36 37 38 45 52 58 63 69 71 69 60 54 60 62 66 64 67 71 67 63 62
42 43 43 42 42 41 39 36 40 45 46 45 42 46 44 50 49 48 46 45 41 39 35 34 35 39 42 47 56 58 66 71 68 62 58 62 63 66 69 73 73 72 64 62
40 41 42 43 43 41 41 43 41 41 47 47 48 51 52 54 50 47 48 45 43 40 36 33 36 39 42 45 53 55 62 67 64 63 56 62 63 65 70 72 73 71 67 65
38 39 41 43 44 43 41 38 35 36 42 48 52 52 58 55 51 50 51 50 47 41 37 36 38 41 40 43 51 61 63 62 60 54 53 57 61 63 69 72 72 73 71 70
32 35 37 39 42 37 37 45 50 50 51 49 51 59 58 54 57 52 53 51 47 42 37 37 40 42 39 42 49 60 62 57 54 53 52 59 68 67 69 74 76 77 77 74
26 29 32 35 36 39 38 43 46 47 47 51 57 58 57 51 49 48 50 48 46 40 36 35 40 41 37 37 46 53 57 57 58 55 56 62 68 70 72 77 81 84 81 75
23 26 29 32 32 35 39 42 44 46 46 45 42 47 50 50 48 46 45 46 43 41 35 35 39 39 37 40 48 53 56 53 58 55 60 65 69 71 77 80 83 84 83 79
23 25 27 29 31 34 36 37 38 39 38 39 39 44 44 45 48 41 43 45 43 36 35 35 35 37 37 43 46 50 52 53 53 54 60 68 73 76 78 81 84 86 85 82
21 23 25 27 29 29 32 34 33 30 31 33 37 40 42 39 35 39 46 41 32 30 34 31 33 33 37 41 41 47 49 51 55 56 61 67 74 75 77 80 82 80 82 83
25 26 24 25 26 27 27 28 31 34 35 38 37 37 37 38 39 40 35 30 28 31 33 29 29 37 35 35 36 43 47 50 56 57 62 67 73 78 79 79 78 79 79 79
26 28 28 28 30 32 33 34 34 34 35 36 37 37 38 37 36 36 34 30 34 37 30 29 35 35 33 32 34 40 44 48 53 53 57 65 71 76 79 79 77 74 77 79
24 27 29 27 25 26 28 30 30 30 31 32 33 33 33 34 35 34 35 35 32 28 27 32 37 36 29 32 33 38 41 46 49 50 53 60 68 72 74 78 76 75 76 75
27 27 28 27 28 27 27 27 28 29 30 29 28 29 29 30 32 30 28 29 31 32 32 34 34 30 29 33 33 35 40 43 46 50 58 66 68 69 73 75 77 77 76 76
24 25 26 25 25 25 24 24 24 24 24 24 25 27 27 26 27 25 26 27 30 31 33 32 33 33 33 35 34 36 38 43 50 54 58 58 56 63 69 73 75 77 78 79
22 24 23 23 23 23 22 22 21 21 21 22 23 23 23 23 25 28 31 32 31 32 30 34 34 30 28 27 29 30 36 38 38 38 50 54 54 57 63 69 74 77 79 81

GFSNW_250_spd_084.txt.gz
Wind_Speed
62 62 61 62 63 63 63 63 59 70 71 68 65 58 62 66 74 78 77 78 80 85 85 86 85 89 88 85 81 77 73 73 71 70 67 65 63 59 58 51 42 43 46 40
56 57 57 58 59 59 63 59 62 66 66 60 58 58 61 66 71 76 79 80 81 83 81 78 81 87 94 93 88 89 84 78 75 70 70 69 67 64 60 52 48 42 50 36
52 52 53 54 55 57 57 58 58 60 58 55 58 61 61 63 68 71 72 77 81 83 80 75 74 75 81 96 97 93 91 88 82 78 73 78 70 68 65 60 54 51 47 45
48 48 49 51 53 52 48 48 50 55 52 58 60 64 61 63 63 66 68 68 72 75 71 70 71 74 76 80 82 95 98 94 93 84 80 84 77 75 74 67 60 57 53 53
45 45 45 46 48 46 36 42 51 55 53 59 59 59 57 62 63 65 64 62 70 65 60 66 72 70 69 69 66 69 78 95 97 90 92 86 89 87 81 70 69 67 64 59
42 42 41 41 41 36 35 45 50 49 53 56 55 55 62 64 64 59 62 62 65 58 63 61 62 62 63 65 68 68 69 73 83 88 103 99 101 91 86 84 79 78 76 70
38 38 38 36 34 33 39 41 49 45 50 51 54 63 61 62 61 63 62 61 58 60 55 58 61 60 61 63 65 67 66 67 71 69 82 89 90 101 100 94 88 84 81 78
35 34 34 32 31 34 38 42 41 42 46 51 53 54 57 59 60 59 59 57 60 51 51 54 55 57 57 62 63 64 66 67 66 67 74 77 74 84 102 106 94 93 90 88
33 32 32 30 30 33 36 38 39 38 41 42 48 53 54 53 55 54 53 54 50 46 46 48 49 51 53 58 59 62 63 64 63 69 68 67 65 74 83 92 88 89 88 86
31 30 30 30 31 32 33 37 38 38 40 40 42 45 48 50 51 49 49 47 44 45 45 45 45 48 51 54 56 58 58 59 63 66 60 61 59 63 67 74 68 73 73 70
30 30 29 30 32 31 33 36 38 41 43 44 44 45 46 49 49 48 49 46 48 47 46 46 47 47 47 46 49 51 53 60 63 62 61 62 58 59 64 65 67 64 65 59
28 28 29 32 33 33 34 35 38 41 44 43 44 46 49 51 53 52 51 45 44 44 43 43 45 48 47 46 48 52 52 56 60 64 61 62 59 60 65 59 63 59 59 61
27 27 28 30 33 33 36 39 41 42 45 44 44 46 50 50 49 48 45 40 42 41 42 43 42 43 45 42 46 49 50 54 58 61 64 63 61 58 53 53 51 54 59 62
30 29 28 30 32 34 36 38 41 43 45 44 43 44 45 49 46 44 43 41 40 43 40 40 40 41 42 40 44 45 50 50 55 60 64 62 61 56 49 50 50 54 59 66
34 33 32 33 34 36 40 41 41 41 44 42 45 44 46 46 44 43 40 38 38 39 37 36 38 38 40 40 38 43 46 44 46 56 62 63 58 56 46 46 49 54 61 65
35 35 35 35 36 38 43 44 40 39 42 44 45 47 46 46 44 40 39 40 37 37 37 36 35 35 35 35 36 45 46 49 54 59 62 63 59 47 41 45 47 53 62 64
33 35 36 38 38 37 34 38 44 48 47 46 48 45 46 46 44 40 38 39 36 33 34 33 33 35 31 31 32 44 45 48 58 60 63 64 61 44 46 47 54 56 59 63
31 33 35 37 40 39 36 42 48 52 54 52 48 48 44 42 42 39 38 40 36 29 28 31 34 31 26 25 36 42 43 43 49 56 61 62 54 44 47 50 55 59 61 63
25 29 34 36 35 35 40 47 45 45 50 51 52 48 46 45 42 41 39 39 36 30 27 31 33 28 26 33 40 44 43 41 46 52 62 62 50 48 50 54 54 63 65 67
23 25 27 29 32 36 43 45 43 41 39 42 44 51 52 42 40 40 40 40 37 32 33 33 29 38 32 35 40 45 42 37 42 48 56 57 51 50 55 60 59 64 66 67
21 24 26 28 31 35 35 36 38 38 38 38 39 42 44 41 43 42 39 35 36 36 37 33 36 41 37 39 42 42 41 35 37 42 47 50 52 54 60 65 66 64 70 70
18 22 25 27 27 26 27 28 31 32 32 35 37 39 37 37 39 40 41 40 37 37 33 29 33 45 44 40 40 39 34 35 38 42 47 52 55 54 58 69 73 73 76 76
21 22 23 23 23 23 23 23 25 31 33 36 40 41 42 42 43 39 36 29 34 42 36 28 40 48 38 33 32 34 34 35 38 45 46 46 53 59 59 63 72 75 77 77
18 20 22 24 26 27 30 34 35 34 36 37 35 32 34 36 34 32 34 38 34 31 34 37 38 36 32 29 29 31 31 35 41 41 42 42 45 54 58 62 71 76 81 80
21 22 24 24 23 23 22 23 24 26 27 26 26 27 28 28 28 30 32 32 32 32 34 35 33 30 30 29 30 31 32 31 36 35 37 39 46 50 54 58 64 71 77 79
22 22 24 23 23 23 23 23 23 23 23 22 23 25 25 25 26 28 31 34 34 33 33 33 33 32 30 29 30 31 32 36 37 40 42 46 50 54 59 61 63 66 70 74
21 23 23 22 23 23 24 24 24 24 24 24 23 23 24 25 27 29 29 31 31 31 29 31 33 32 29 29 32 32 36 37 37 42 43 44 51 56 63 62 62 64 68 71

GFSNW_250_spd_090.txt.gz
Wind_Speed
62 63 64 64 65 64 60 62 61 66 62 60 59 60 61 61 65 70 72 73 71 69 72 73 72 71 64 59 59 56 57 55 56 61 63 63 63 57 58 53 51 52 49 47
54 57 57 58 61 57 55 55 57 59 58 57 58 60 60 63 67 71 74 75 74 72 71 73 74 72 66 61 59 56 56 53 62 61 60 60 63 64 66 63 60 61 57 51
48 50 52 53 53 50 49 51 54 57 56 55 57 60 60 61 67 71 74 75 74 73 72 73 74 74 69 63 65 60 62 61 61 63 67 62 60 56 56 59 54 59 56 56
42 43 46 47 46 43 44 49 54 56 52 56 55 56 58 61 65 71 73 75 77 77 73 72 72 75 70 63 63 68 66 68 69 67 62 65 71 71 70 70 69 67 65 61
36 36 38 37 36 39 42 49 53 53 51 51 53 53 57 62 66 68 73 79 79 76 74 74 71 71 67 70 67 70 77 75 72 71 72 75 68 64 68 74 76 77 76 72
32 33 34 33 35 38 43 48 47 44 48 50 49 53 60 65 64 66 71 78 75 75 76 71 70 69 69 71 69 68 71 77 80 80 76 74 71 77 74 69 65 69 66 62
29 29 30 31 32 37 42 40 40 44 45 46 51 56 59 62 62 66 66 70 72 73 70 69 67 68 69 71 73 70 72 75 77 81 85 81 81 83 82 80 79 76 73 70
26 27 28 30 32 35 38 36 39 41 44 46 47 49 55 59 62 64 64 67 71 69 67 64 66 66 67 71 72 69 71 72 75 77 83 85 87 87 86 89 92 87 84 78
25 27 27 28 30 33 33 34 36 39 40 48 49 46 50 50 55 59 61 61 62 65 64 61 63 62 62 64 65 67 68 69 69 72 75 76 81 88 89 91 91 94 95 92
24 24 24 26 28 30 28 29 32 36 41 41 41 45 50 50 52 55 56 57 57 59 59 60 60 58 58 60 64 67 68 67 66 71 73 75 81 82 84 85 88 91 94 91
23 24 25 25 25 27 26 29 32 35 36 34 40 41 42 45 48 51 53 52 52 50 54 57 57 56 58 62 64 64 61 59 63 63 62 65 73 74 76 77 73 78 76 76
24 25 26 26 25 25 27 29 30 30 33 36 38 37 37 42 47 48 45 47 45 48 51 55 56 58 59 60 58 56 56 55 56 57 58 60 64 63 65 66 66 68 70 67
23 24 25 26 26 26 26 26 26 28 31 34 37 42 43 44 46 45 45 44 42 44 46 49 52 55 56 53 56 51 54 54 56 55 59 58 61 58 57 58 61 61 61 63
20 21 22 24 26 26 26 26 26 27 32 35 36 37 40 39 40 42 41 38 40 41 42 44 47 50 49 51 50 51 52 53 52 52 54 51 57 52 51 54 55 56 57 59
20 21 22 23 25 26 25 25 26 28 31 34 36 35 37 38 38 37 35 38 41 43 43 45 47 48 48 50 49 51 50 48 49 50 48 49 45 46 47 47 49 52 53 56
24 25 25 23 23 23 24 24 26 27 29 32 34 36 36 36 36 35 36 37 39 40 43 45 46 47 47 47 49 47 47 47 47 46 46 47 42 43 43 45 46 48 51 54
25 27 26 24 24 25 27 32 35 36 36 35 34 35 37 36 36 36 33 33 34 37 39 42 43 43 43 43 45 46 47 45 44 45 43 45 39 40 41 43 45 47 48 50
30 29 29 28 27 25 28 29 30 33 33 32 33 34 35 37 35 35 35 37 38 40 40 42 42 41 41 39 43 49 46 44 44 42 41 43 38 35 38 40 42 45 47 47
33 34 35 32 27 28 31 28 30 29 30 30 32 33 33 32 32 32 32 35 35 36 38 41 41 41 36 42 46 49 46 43 41 38 36 39 38 35 37 39 41 44 45 43
32 32 28 28 33 37 33 28 26 25 24 26 27 28 30 29 27 28 30 33 37 39 41 41 37 37 42 46 49 49 45 40 37 34 34 36 39 34 34 35 38 42 44 44
23 24 26 32 38 42 41 31 24 23 25 26 27 26 27 27 28 27 29 32 36 39 39 35 36 39 43 47 46 46 44 40 35 30 31 35 39 40 34 35 37 41 44 45
25 27 31 34 38 37 35 32 30 27 25 26 27 26 26 26 27 27 27 29 32 34 35 37 37 43 46 46 45 44 42 40 34 26 28 35 38 40 39 33 34 37 40 42
27 31 30 31 29 25 29 33 35 39 38 31 28 28 28 28 25 23 23 23 29 32 30 35 42 47 45 42 42 41 38 34 31 28 29 31 35 37 40 36 31 35 38 40
22 23 24 25 31 36 38 39 41 44 41 35 32 32 30 29 28 26 23 24 23 25 28 32 38 40 40 39 35 34 35 33 31 30 34 33 35 38 39 39 36 37 38 41
22 27 30 32 34 36 37 38 40 42 43 42 41 38 35 32 28 24 23 21 24 26 32 35 35 36 34 31 33 36 38 33 30 31 33 34 36 41 42 41 39 38 38 41
15 15 17 19 23 27 30 34 36 40 41 41 41 41 37 31 26 21 21 23 25 28 30 29 28 25 29 34 36 38 37 34 33 37 37 36 37 37 39 41 42 41 40 41
19 20 19 16 18 19 22 25 27 29 32 33 33 33 33 31 30 30 29 28 28 30 29 30 33 33 32 31 33 33 33 32 33 34 34 34 35 36 38 40 40 40 42 42